Timestamp, Local Timestamp, ID, PM25, PM10, Co2, Temperature, Relative Humidity, Monitor ID, O3
2022-02-11T18:03:50Z,02/11/22 13:03,7377279,0.501,0.0,419,20.4,30.0,71,12.0
2022-02-11T18:07:01Z,02/11/22 13:07,7377304,0.483,0.0,544,20.6,30.4,71,0.0
2022-02-11T18:08:00Z,02/11/22 13:08,7377313,0.612,0.0,533,20.6,30.4,71,11.0
2022-02-11T18:09:00Z,02/11/22 13:09,7377322,0.51,0.0,508,20.6,30.4,71,10.0
2022-02-11T18:10:01Z,02/11/22 13:10,7377330,0.553,0.002,484,20.6,30.3,71,10.0
2022-02-11T18:11:00Z,02/11/22 13:11,7377340,0.485,0.001,461,20.6,30.3,71,10.0
2022-02-11T18:12:00Z,02/11/22 13:12,7377348,0.5389999999999999,0.001,461,20.6,30.3,71,11.0
2022-02-11T18:13:01Z,02/11/22 13:13,7377356,0.44000000000000006,0.001,461,20.6,30.3,71,11.0
2022-02-11T18:14:00Z,02/11/22 13:14,7377365,0.641,0.001,452,20.6,30.3,71,11.0
2022-02-11T18:15:00Z,02/11/22 13:15,7377372,0.558,0.0,450,20.6,30.3,71,11.0
2022-02-11T18:16:00Z,02/11/22 13:16,7377380,0.43499999999999994,0.0,439,20.6,30.3,71,11.0
2022-02-11T18:17:00Z,02/11/22 13:17,7377388,0.615,0.0,434,20.6,30.3,71,11.0
2022-02-11T18:18:00Z,02/11/22 13:18,7377396,0.609,0.0,443,20.6,30.3,71,11.0
2022-02-11T18:19:00Z,02/11/22 13:19,7377404,0.47400000000000003,0.0,437,20.6,30.3,71,11.0
2022-02-11T18:20:00Z,02/11/22 13:20,7377412,0.5690000000000001,0.001,437,20.6,30.3,71,11.0
2022-02-11T18:21:00Z,02/11/22 13:21,7377420,0.44800000000000006,0.002,429,20.6,30.3,71,10.0
2022-02-11T18:22:00Z,02/11/22 13:22,7377428,0.501,0.0,433,20.6,30.3,71,10.0
2022-02-11T18:23:00Z,02/11/22 13:23,7377436,0.519,0.0,441,20.6,30.2,71,10.0
2022-02-11T18:24:00Z,02/11/22 13:24,7377445,0.491,0.001,441,20.7,30.3,71,11.0
2022-02-11T18:25:00Z,02/11/22 13:25,7377454,0.567,0.0,432,20.7,30.3,71,11.0
2022-02-11T18:26:00Z,02/11/22 13:26,7377463,0.5,0.001,426,20.7,30.3,71,12.0
2022-02-11T18:27:00Z,02/11/22 13:27,7377472,0.545,0.001,428,20.7,30.3,71,12.0
2022-02-11T18:28:00Z,02/11/22 13:28,7377481,0.548,0.001,427,20.7,30.3,71,11.0
2022-02-11T18:29:00Z,02/11/22 13:29,7377490,0.49800000000000005,0.0,425,20.7,30.2,71,11.0
2022-02-11T18:30:00Z,02/11/22 13:30,7377499,0.507,0.0,428,20.7,30.2,71,11.0
2022-02-11T18:31:00Z,02/11/22 13:31,7377508,0.5269999999999999,0.001,428,20.7,30.2,71,12.0
2022-02-11T18:32:00Z,02/11/22 13:32,7377517,0.48,0.0,429,20.7,30.2,71,12.0
2022-02-11T18:33:00Z,02/11/22 13:33,7377526,0.641,0.001,425,20.7,30.2,71,11.0
2022-02-11T18:34:00Z,02/11/22 13:34,7377535,0.46299999999999997,0.002,434,20.7,30.2,71,12.0
2022-02-11T18:35:00Z,02/11/22 13:35,7377544,0.504,0.0,432,20.7,30.2,71,11.0
2022-02-11T18:36:00Z,02/11/22 13:36,7377553,0.5940000000000001,0.0,424,20.7,30.2,71,13.0
2022-02-11T18:37:00Z,02/11/22 13:37,7377562,0.5599999999999999,0.001,427,20.7,30.2,71,12.0
2022-02-11T18:38:00Z,02/11/22 13:38,7377571,0.568,0.002,423,20.7,30.2,71,12.0
2022-02-11T18:39:00Z,02/11/22 13:39,7377580,0.607,0.002,427,20.7,30.2,71,12.0
2022-02-11T18:40:00Z,02/11/22 13:40,7377589,0.6809999999999999,0.003,420,20.6,30.2,71,12.0
2022-02-11T18:41:00Z,02/11/22 13:41,7377598,0.617,0.001,426,20.6,30.2,71,12.0
2022-02-11T18:42:00Z,02/11/22 13:42,7377607,0.669,0.0,422,20.6,30.2,71,12.0
2022-02-11T18:43:00Z,02/11/22 13:43,7377617,0.47000000000000003,0.001,426,20.6,30.2,71,12.0
2022-02-11T18:44:00Z,02/11/22 13:44,7377626,0.692,0.001,426,20.6,30.2,71,13.0
2022-02-11T18:45:00Z,02/11/22 13:45,7377635,0.623,0.001,428,20.6,30.3,71,12.0
2022-02-11T18:46:00Z,02/11/22 13:46,7377644,0.49800000000000005,0.0,428,20.6,30.3,71,12.0
2022-02-11T18:47:00Z,02/11/22 13:47,7377653,0.483,0.0,431,20.5,30.3,71,12.0
2022-02-11T18:48:00Z,02/11/22 13:48,7377662,0.623,0.001,428,20.5,30.3,71,13.0
2022-02-11T18:49:00Z,02/11/22 13:49,7377671,0.499,0.002,428,20.5,30.3,71,11.0
2022-02-11T18:50:00Z,02/11/22 13:50,7377681,0.5269999999999999,0.001,433,20.5,30.3,71,12.0
2022-02-11T18:51:00Z,02/11/22 13:51,7377689,0.481,0.002,424,20.5,30.3,71,12.0
2022-02-11T18:52:00Z,02/11/22 13:52,7377698,0.484,0.002,428,20.5,30.3,71,12.0
2022-02-11T18:53:00Z,02/11/22 13:53,7377707,0.525,0.0,429,20.5,30.3,71,13.0
2022-02-11T18:54:00Z,02/11/22 13:54,7377716,0.534,0.0,426,20.4,30.3,71,11.0
2022-02-11T18:55:00Z,02/11/22 13:55,7377725,0.518,0.001,433,20.4,30.3,71,12.0
2022-02-11T18:56:00Z,02/11/22 13:56,7377734,0.558,0.0,429,20.4,30.3,71,12.0
2022-02-11T18:57:01Z,02/11/22 13:57,7377743,0.5519999999999999,0.0,424,20.4,30.4,71,13.0
2022-02-11T18:58:00Z,02/11/22 13:58,7377752,0.597,0.0,426,20.4,30.4,71,12.0
2022-02-11T18:59:00Z,02/11/22 13:59,7377761,0.47400000000000003,0.0,432,20.3,30.3,71,12.0
2022-02-11T19:00:01Z,02/11/22 14:00,7377770,0.686,0.001,422,20.3,30.4,71,12.0
2022-02-11T19:01:00Z,02/11/22 14:01,7377779,0.54,0.0,428,20.3,30.4,71,12.0
2022-02-11T19:02:00Z,02/11/22 14:02,7377788,0.495,0.0,404,20.3,30.4,71,12.0
2022-02-11T19:03:00Z,02/11/22 14:03,7377797,0.477,0.0,408,20.3,30.4,71,12.0
2022-02-11T19:04:00Z,02/11/22 14:04,7377806,0.5700000000000001,0.0,416,20.3,30.5,71,12.0
2022-02-11T19:05:00Z,02/11/22 14:05,7377816,0.621,0.0,412,20.3,30.4,71,11.0
2022-02-11T19:06:00Z,02/11/22 14:06,7377826,0.537,0.0,416,20.3,30.5,71,11.0
2022-02-11T19:07:00Z,02/11/22 14:07,7377835,0.5309999999999999,0.0,423,20.3,30.5,71,12.0
2022-02-11T19:08:00Z,02/11/22 14:08,7377845,0.522,0.006,416,20.3,30.5,71,11.0
2022-02-11T19:09:00Z,02/11/22 14:09,7377855,0.441,0.0,412,20.3,30.5,71,11.0
2022-02-11T19:10:00Z,02/11/22 14:10,7377865,0.44299999999999995,0.001,419,20.3,30.5,71,11.0
2022-02-11T19:11:00Z,02/11/22 14:11,7377875,0.572,0.001,416,20.3,30.5,71,11.0
2022-02-11T19:12:00Z,02/11/22 14:12,7377885,0.584,0.001,418,20.3,30.5,71,10.0
2022-02-11T19:13:00Z,02/11/22 14:13,7377895,0.575,0.001,416,20.4,30.5,71,10.0
2022-02-11T19:14:00Z,02/11/22 14:14,7377905,0.47400000000000003,0.0,421,20.4,30.5,71,11.0
2022-02-11T19:15:00Z,02/11/22 14:15,7377915,0.5309999999999999,0.0,412,20.4,30.5,71,10.0
2022-02-11T19:16:00Z,02/11/22 14:16,7377925,0.449,0.001,412,20.5,30.5,71,11.0
2022-02-11T19:17:00Z,02/11/22 14:17,7377935,0.466,0.002,412,20.5,30.5,71,11.0
2022-02-11T19:18:00Z,02/11/22 14:18,7377945,0.49800000000000005,0.0,417,20.5,30.5,71,11.0
2022-02-11T19:19:00Z,02/11/22 14:19,7377955,0.526,0.002,418,20.5,30.5,71,10.0
2022-02-11T19:20:00Z,02/11/22 14:20,7377965,0.489,0.0,417,20.5,30.5,71,11.0
2022-02-11T19:21:00Z,02/11/22 14:21,7377975,0.438,0.0,418,20.5,30.5,71,10.0
2022-02-11T19:22:00Z,02/11/22 14:22,7377985,0.519,0.0,423,20.5,30.5,71,11.0
2022-02-11T19:23:00Z,02/11/22 14:23,7377996,0.5389999999999999,0.001,416,20.5,30.5,71,11.0
2022-02-11T19:24:00Z,02/11/22 14:24,7378005,0.46399999999999997,0.001,419,20.6,30.4,71,10.0
2022-02-11T19:25:00Z,02/11/22 14:25,7378015,0.357,0.0,428,20.6,30.4,71,11.0
2022-02-11T19:26:00Z,02/11/22 14:26,7378025,0.462,0.0,414,20.6,30.4,71,10.0
2022-02-11T19:27:00Z,02/11/22 14:27,7378035,0.5429999999999999,0.0,419,20.6,30.3,71,10.0
2022-02-11T19:28:00Z,02/11/22 14:28,7378045,0.492,0.003,408,20.6,30.3,71,10.0
2022-02-11T19:29:00Z,02/11/22 14:29,7378055,0.548,0.001,416,20.6,30.3,71,11.0
2022-02-11T19:30:00Z,02/11/22 14:30,7378065,0.491,0.001,409,20.6,30.3,71,10.0
2022-02-11T19:31:00Z,02/11/22 14:31,7378075,0.465,0.0,414,20.6,30.3,71,11.0
2022-02-11T19:32:00Z,02/11/22 14:32,7378085,0.368,0.001,416,20.6,30.3,71,11.0
2022-02-11T19:33:00Z,02/11/22 14:33,7378095,0.343,0.002,417,20.6,30.3,71,11.0
2022-02-11T19:34:00Z,02/11/22 14:34,7378105,0.507,0.0,411,20.7,30.3,71,10.0
2022-02-11T19:35:00Z,02/11/22 14:35,7378115,0.42300000000000004,0.0,422,20.7,30.3,71,11.0
2022-02-11T19:36:00Z,02/11/22 14:36,7378125,0.414,0.0,413,20.7,30.3,71,10.0
2022-02-11T19:37:00Z,02/11/22 14:37,7378135,0.532,0.002,410,20.7,30.3,71,10.0
2022-02-11T19:38:00Z,02/11/22 14:38,7378145,0.51,0.0,405,20.7,30.3,71,11.0
2022-02-11T19:39:00Z,02/11/22 14:39,7378155,0.45899999999999996,0.0,415,20.7,30.3,71,10.0
2022-02-11T19:40:00Z,02/11/22 14:40,7378165,0.495,0.0,413,20.7,30.3,71,11.0
2022-02-11T19:41:00Z,02/11/22 14:41,7378175,0.476,0.001,412,20.7,30.3,71,12.0
2022-02-11T19:42:00Z,02/11/22 14:42,7378185,0.534,0.0,417,20.7,30.3,71,11.0
2022-02-11T19:43:00Z,02/11/22 14:43,7378195,0.44699999999999995,0.0,417,20.7,30.3,71,12.0
2022-02-11T19:44:00Z,02/11/22 14:44,7378205,0.546,0.0,413,20.7,30.3,71,12.0
2022-02-11T19:45:00Z,02/11/22 14:45,7378215,0.534,0.0,417,20.7,30.3,71,11.0
2022-02-11T19:46:00Z,02/11/22 14:46,7378225,0.525,0.0,410,20.7,30.3,71,11.0
2022-02-11T19:47:00Z,02/11/22 14:47,7378235,0.537,0.0,409,20.7,30.3,71,12.0
2022-02-11T19:48:00Z,02/11/22 14:48,7378245,0.48,0.0,409,20.7,30.3,71,12.0
2022-02-11T19:49:00Z,02/11/22 14:49,7378255,0.504,0.0,413,20.7,30.3,71,12.0
2022-02-11T19:50:00Z,02/11/22 14:50,7378265,0.45,0.0,410,20.7,30.3,71,12.0
2022-02-11T19:51:00Z,02/11/22 14:51,7378275,0.441,0.0,413,20.6,30.3,71,12.0
2022-02-11T19:52:00Z,02/11/22 14:52,7378285,0.549,0.0,409,20.6,30.3,71,12.0
2022-02-11T19:53:00Z,02/11/22 14:53,7378295,0.441,0.0,404,20.6,30.3,71,12.0
2022-02-11T19:54:00Z,02/11/22 14:54,7378305,0.501,0.0,408,20.6,30.3,71,12.0
2022-02-11T19:55:00Z,02/11/22 14:55,7378315,0.533,0.001,408,20.6,30.3,71,12.0
2022-02-11T19:56:00Z,02/11/22 14:56,7378325,0.399,0.0,416,20.6,30.4,71,12.0
2022-02-11T19:57:00Z,02/11/22 14:57,7378335,0.512,0.001,408,20.6,30.4,71,12.0
2022-02-11T19:58:00Z,02/11/22 14:58,7378345,0.45599999999999996,0.0,412,20.5,30.4,71,12.0
2022-02-11T19:59:00Z,02/11/22 14:59,7378355,0.46399999999999997,0.001,414,20.5,30.4,71,12.0
2022-02-11T20:00:00Z,02/11/22 15:00,7378365,0.42000000000000004,0.0,429,20.5,30.4,71,12.0
2022-02-11T20:01:00Z,02/11/22 15:01,7378375,0.44000000000000006,0.001,414,20.5,30.4,71,11.0
2022-02-11T20:02:00Z,02/11/22 15:02,7378385,0.584,0.001,412,20.5,30.4,71,12.0
2022-02-11T20:03:00Z,02/11/22 15:03,7378395,0.5269999999999999,0.001,412,20.5,30.4,71,12.0
2022-02-11T20:04:00Z,02/11/22 15:04,7378405,0.558,0.0,412,20.5,30.5,71,12.0
2022-02-11T20:05:00Z,02/11/22 15:05,7378415,0.491,0.001,412,20.5,30.5,71,12.0
2022-02-11T20:06:00Z,02/11/22 15:06,7378425,0.48600000000000004,0.0,416,20.4,30.5,71,12.0
2022-02-11T20:07:00Z,02/11/22 15:07,7378435,0.46799999999999997,0.0,411,20.4,30.5,71,12.0
2022-02-11T20:08:00Z,02/11/22 15:08,7378445,0.548,0.001,426,20.4,30.5,71,12.0
2022-02-11T20:09:00Z,02/11/22 15:09,7378455,0.446,0.001,409,20.4,30.6,71,12.0
2022-02-11T20:10:00Z,02/11/22 15:10,7378465,0.507,0.0,418,20.3,30.6,71,11.0
2022-02-11T20:11:00Z,02/11/22 15:11,7378475,0.491,0.001,398,20.3,30.6,71,12.0
2022-02-11T20:12:00Z,02/11/22 15:12,7378485,0.481,0.002,416,20.3,30.6,71,12.0
2022-02-11T20:13:00Z,02/11/22 15:13,7378495,0.521,0.001,411,20.3,30.6,71,12.0
2022-02-11T20:14:00Z,02/11/22 15:14,7378505,0.437,0.001,416,20.3,30.7,71,11.0
2022-02-11T20:15:00Z,02/11/22 15:15,7378515,0.45,0.0,417,20.3,30.7,71,12.0
2022-02-11T20:16:00Z,02/11/22 15:16,7378525,0.542,0.001,408,20.3,30.7,71,11.0
2022-02-11T20:17:00Z,02/11/22 15:17,7378535,0.44699999999999995,0.0,412,20.3,30.7,71,11.0
2022-02-11T20:18:00Z,02/11/22 15:18,7378545,0.483,0.0,409,20.3,30.7,71,11.0
2022-02-11T20:19:00Z,02/11/22 15:19,7378555,0.548,0.001,407,20.3,30.7,71,10.0
2022-02-11T20:20:00Z,02/11/22 15:20,7378565,0.45899999999999996,0.0,419,20.3,30.7,71,11.0
2022-02-11T20:21:00Z,02/11/22 15:21,7378575,0.426,0.0,416,20.3,30.7,71,11.0
2022-02-11T20:22:00Z,02/11/22 15:22,7378585,0.45,0.0,419,20.4,30.7,71,10.0
2022-02-11T20:23:00Z,02/11/22 15:23,7378595,0.5660000000000001,0.001,419,20.4,30.7,71,10.0
2022-02-11T20:24:00Z,02/11/22 15:24,7378605,0.46900000000000003,0.002,422,20.4,30.7,71,10.0
2022-02-11T20:25:00Z,02/11/22 15:25,7378615,0.275,0.001,422,20.5,30.6,71,10.0
2022-02-11T20:26:00Z,02/11/22 15:26,7378625,0.383,0.001,416,20.5,30.6,71,11.0
2022-02-11T20:27:00Z,02/11/22 15:27,7378635,0.414,0.0,433,20.5,30.6,71,11.0
2022-02-11T20:28:00Z,02/11/22 15:28,7378645,0.42400000000000004,0.002,422,20.5,30.6,71,11.0
2022-02-11T20:29:00Z,02/11/22 15:29,7378655,0.41,0.001,424,20.5,30.6,71,10.0
2022-02-11T20:30:00Z,02/11/22 15:30,7378665,0.479,0.001,416,20.5,30.6,71,10.0
2022-02-11T20:31:00Z,02/11/22 15:31,7378675,0.40499999999999997,0.0,419,20.5,30.5,71,10.0
2022-02-11T20:32:00Z,02/11/22 15:32,7378685,0.375,0.0,419,20.6,30.6,71,10.0
2022-02-11T20:33:00Z,02/11/22 15:33,7378695,0.46399999999999997,0.001,429,20.6,30.6,71,11.0
2022-02-11T20:34:00Z,02/11/22 15:34,7378705,0.453,0.0,413,20.6,30.5,71,11.0
2022-02-11T20:35:00Z,02/11/22 15:35,7378715,0.45899999999999996,0.0,423,20.6,30.5,71,11.0
2022-02-11T20:36:00Z,02/11/22 15:36,7378725,0.41600000000000004,0.001,419,20.6,30.5,71,9.0
2022-02-11T20:37:00Z,02/11/22 15:37,7378735,0.429,0.0,419,20.6,30.5,71,10.0
2022-02-11T20:38:00Z,02/11/22 15:38,7378745,0.387,0.0,404,20.6,30.4,71,9.0
2022-02-11T20:39:00Z,02/11/22 15:39,7378755,0.41900000000000004,0.001,416,20.7,30.4,71,10.0
2022-02-11T20:40:00Z,02/11/22 15:40,7378765,0.34199999999999997,0.0,417,20.7,30.4,71,10.0
2022-02-11T20:41:00Z,02/11/22 15:41,7378775,0.387,0.0,414,20.7,30.4,71,10.0
2022-02-11T20:42:00Z,02/11/22 15:42,7378785,0.462,0.0,413,20.7,30.3,71,9.0
2022-02-11T20:43:00Z,02/11/22 15:43,7378795,0.396,0.0,404,20.7,30.3,71,9.0
2022-02-11T20:44:00Z,02/11/22 15:44,7378805,0.44699999999999995,0.0,413,20.8,30.4,71,10.0
2022-02-11T20:45:00Z,02/11/22 15:45,7378815,0.375,0.0,410,20.9,30.4,71,10.0
2022-02-11T20:46:00Z,02/11/22 15:46,7378825,0.43499999999999994,0.0,413,20.9,30.4,71,10.0
2022-02-11T20:47:00Z,02/11/22 15:47,7378835,0.414,0.0,423,20.9,30.4,71,10.0
2022-02-11T20:48:00Z,02/11/22 15:48,7378845,0.351,0.0,409,20.9,30.4,71,11.0
2022-02-11T20:49:00Z,02/11/22 15:49,7378855,0.373,0.002,409,20.9,30.4,71,11.0
2022-02-11T20:50:00Z,02/11/22 15:50,7378865,0.426,0.0,405,20.9,30.4,71,11.0
2022-02-11T20:51:00Z,02/11/22 15:51,7378875,0.477,0.0,414,20.9,30.4,71,11.0
2022-02-11T20:52:00Z,02/11/22 15:52,7378885,0.441,0.0,413,20.9,30.4,71,11.0
2022-02-11T20:53:00Z,02/11/22 15:53,7378895,0.497,0.001,418,20.8,30.3,71,10.0
2022-02-11T20:54:00Z,02/11/22 15:54,7378905,0.40199999999999997,0.0,409,20.7,30.3,71,11.0
2022-02-11T20:55:00Z,02/11/22 15:55,7378915,0.40499999999999997,0.0,405,20.7,30.3,71,12.0
2022-02-11T20:56:00Z,02/11/22 15:56,7378925,0.462,0.0,413,20.7,30.3,71,10.0
2022-02-11T20:57:00Z,02/11/22 15:57,7378935,0.454,0.002,420,20.7,30.3,71,11.0
2022-02-11T20:58:00Z,02/11/22 15:58,7378945,0.454,0.002,410,20.7,30.3,71,10.0
2022-02-11T20:59:00Z,02/11/22 15:59,7378955,0.366,0.0,407,20.7,30.4,71,11.0
2022-02-11T21:00:00Z,02/11/22 16:00,7378965,0.42800000000000005,0.001,415,20.6,30.4,71,11.0
2022-02-11T21:01:00Z,02/11/22 16:01,7378975,0.5,0.001,416,20.6,30.4,71,11.0
2022-02-11T21:02:00Z,02/11/22 16:02,7378985,0.501,0.0,414,20.6,30.4,71,12.0
2022-02-11T21:03:00Z,02/11/22 16:03,7378995,0.372,0.0,416,20.6,30.4,71,11.0
2022-02-11T21:04:00Z,02/11/22 16:04,7379005,0.396,0.0,419,20.6,30.4,71,11.0
2022-02-11T21:05:00Z,02/11/22 16:05,7379015,0.413,0.001,422,20.6,30.4,71,12.0
2022-02-11T21:06:00Z,02/11/22 16:06,7379025,0.425,0.001,418,20.6,30.4,71,12.0
2022-02-11T21:07:00Z,02/11/22 16:07,7379035,0.44699999999999995,0.0,408,20.6,30.5,71,11.0
2022-02-11T21:08:00Z,02/11/22 16:08,7379045,0.47000000000000003,0.001,422,20.5,30.5,71,11.0
2022-02-11T21:09:00Z,02/11/22 16:09,7379055,0.47400000000000003,0.0,423,20.5,30.5,71,11.0
2022-02-11T21:10:00Z,02/11/22 16:10,7379065,0.508,0.002,419,20.5,30.5,71,11.0
2022-02-11T21:11:00Z,02/11/22 16:11,7379075,0.48600000000000004,0.0,413,20.5,30.5,71,11.0
2022-02-11T21:12:00Z,02/11/22 16:12,7379085,0.389,0.001,417,20.5,30.6,71,10.0
2022-02-11T21:13:00Z,02/11/22 16:13,7379095,0.429,0.0,417,20.5,30.6,71,11.0
2022-02-11T21:14:00Z,02/11/22 16:14,7379105,0.381,0.0,414,20.5,30.6,71,10.0
2022-02-11T21:15:00Z,02/11/22 16:15,7379115,0.40499999999999997,0.0,412,20.4,30.6,71,11.0
2022-02-11T21:16:00Z,02/11/22 16:16,7379125,0.441,0.0,422,20.4,30.6,71,11.0
2022-02-11T21:17:00Z,02/11/22 16:17,7379135,0.466,0.002,412,20.4,30.6,71,10.0
2022-02-11T21:18:00Z,02/11/22 16:18,7379145,0.417,0.0,409,20.4,30.6,71,10.0
2022-02-11T21:19:00Z,02/11/22 16:19,7379155,0.417,0.0,414,20.3,30.7,71,10.0
2022-02-11T21:20:00Z,02/11/22 16:20,7379165,0.40800000000000003,0.0,414,20.3,30.6,71,10.0
2022-02-11T21:21:00Z,02/11/22 16:21,7379175,0.453,0.0,416,20.3,30.7,71,11.0
2022-02-11T21:22:00Z,02/11/22 16:22,7379185,0.387,0.0,416,20.3,30.7,71,10.0
2022-02-11T21:23:00Z,02/11/22 16:23,7379195,0.329,0.001,407,20.3,30.7,71,10.0
2022-02-11T21:24:00Z,02/11/22 16:24,7379205,0.438,0.0,419,20.3,30.7,71,10.0
2022-02-11T21:25:00Z,02/11/22 16:25,7379215,0.371,0.001,414,20.3,30.7,71,10.0
2022-02-11T21:26:00Z,02/11/22 16:26,7379225,0.364,0.002,413,20.3,30.7,71,10.0
2022-02-11T21:27:00Z,02/11/22 16:27,7379235,0.396,0.003,401,20.4,30.6,71,10.0
2022-02-11T21:28:00Z,02/11/22 16:28,7379245,0.395,0.001,416,20.4,30.6,71,10.0
2022-02-11T21:29:00Z,02/11/22 16:29,7379255,0.368,0.001,421,20.4,30.6,71,9.0
2022-02-11T21:30:00Z,02/11/22 16:30,7379265,0.384,0.0,412,20.5,30.6,71,9.0
2022-02-11T21:31:00Z,02/11/22 16:31,7379275,0.34500000000000003,0.0,419,20.5,30.6,71,10.0
2022-02-11T21:32:00Z,02/11/22 16:32,7379285,0.359,0.001,424,20.5,30.6,71,10.0
2022-02-11T21:33:00Z,02/11/22 16:33,7379295,0.32599999999999996,0.001,428,20.5,30.6,71,9.0
2022-02-11T21:34:00Z,02/11/22 16:34,7379305,0.437,0.001,413,20.5,30.5,71,10.0
2022-02-11T21:35:00Z,02/11/22 16:35,7379315,0.348,0.0,423,20.5,30.5,71,9.0
2022-02-11T21:36:00Z,02/11/22 16:36,7379325,0.449,0.001,423,20.6,30.5,71,9.0
2022-02-11T21:37:00Z,02/11/22 16:37,7379335,0.34500000000000003,0.0,424,20.6,30.5,71,10.0
2022-02-11T21:38:00Z,02/11/22 16:38,7379345,0.29100000000000004,0.0,422,20.6,30.5,71,9.0
2022-02-11T21:39:00Z,02/11/22 16:39,7379355,0.348,0.0,413,20.6,30.5,71,10.0
2022-02-11T21:40:00Z,02/11/22 16:40,7379365,0.35,0.001,424,20.6,30.4,71,9.0
2022-02-11T21:41:00Z,02/11/22 16:41,7379375,0.369,0.0,423,20.6,30.4,71,9.0
2022-02-11T21:42:00Z,02/11/22 16:42,7379385,0.43200000000000005,0.0,426,20.6,30.4,71,9.0
2022-02-11T21:43:00Z,02/11/22 16:43,7379395,0.246,0.0,419,20.6,30.4,71,10.0
2022-02-11T21:44:00Z,02/11/22 16:44,7379405,0.306,0.0,419,20.7,30.4,71,9.0
2022-02-11T21:45:00Z,02/11/22 16:45,7379415,0.369,0.0,419,20.7,30.4,71,10.0
2022-02-11T21:46:00Z,02/11/22 16:46,7379425,0.318,0.0,432,20.7,30.4,71,9.0
2022-02-11T21:47:00Z,02/11/22 16:47,7379435,0.258,0.0,413,20.7,30.4,71,9.0
2022-02-11T21:48:00Z,02/11/22 16:48,7379445,0.306,0.0,420,20.7,30.4,71,9.0
2022-02-11T21:49:00Z,02/11/22 16:49,7379455,0.396,0.0,417,20.7,30.4,71,9.0
2022-02-11T21:50:00Z,02/11/22 16:50,7379465,0.33799999999999997,0.001,409,20.7,30.3,71,10.0
2022-02-11T21:51:00Z,02/11/22 16:51,7379475,0.362,0.001,408,20.8,30.3,71,10.0
2022-02-11T21:52:00Z,02/11/22 16:52,7379485,0.375,0.0,420,20.9,30.4,71,9.0
2022-02-11T21:53:00Z,02/11/22 16:53,7379495,0.38,0.001,415,20.9,30.4,71,10.0
2022-02-11T21:54:00Z,02/11/22 16:54,7379505,0.47400000000000003,0.0,409,20.9,30.4,71,9.0
2022-02-11T21:55:00Z,02/11/22 16:55,7379515,0.422,0.001,414,20.9,30.4,71,11.0
2022-02-11T21:56:00Z,02/11/22 16:56,7379525,0.362,0.001,409,20.9,30.4,71,10.0
2022-02-11T21:57:00Z,02/11/22 16:57,7379535,0.42699999999999994,0.002,415,20.9,30.4,71,11.0
2022-02-11T21:58:00Z,02/11/22 16:58,7379545,0.321,0.0,413,20.9,30.4,71,11.0
2022-02-11T21:59:00Z,02/11/22 16:59,7379555,0.47800000000000004,0.002,412,20.9,30.4,71,11.0
2022-02-11T22:00:00Z,02/11/22 17:00,7379565,0.429,0.0,415,20.7,30.3,71,11.0
2022-02-11T22:01:00Z,02/11/22 17:01,7379575,0.414,0.0,413,20.7,30.3,71,11.0
2022-02-11T22:02:00Z,02/11/22 17:02,7379585,0.414,0.0,409,20.7,30.3,71,11.0
2022-02-11T22:03:00Z,02/11/22 17:03,7379595,0.363,0.0,409,20.7,30.3,71,11.0
2022-02-11T22:04:00Z,02/11/22 17:04,7379605,0.495,0.0,422,20.7,30.4,71,12.0
2022-02-11T22:05:00Z,02/11/22 17:05,7379615,0.44400000000000006,0.0,409,20.7,30.4,71,10.0
2022-02-11T22:06:00Z,02/11/22 17:06,7379627,0.42300000000000004,0.0,409,20.6,30.4,71,12.0
2022-02-11T22:07:00Z,02/11/22 17:07,7379635,0.512,0.001,408,20.6,30.4,71,11.0
2022-02-11T22:08:00Z,02/11/22 17:08,7379645,0.41100000000000003,0.0,423,20.6,30.4,71,12.0
2022-02-11T22:09:00Z,02/11/22 17:09,7379655,0.36,0.0,419,20.6,30.4,71,12.0
2022-02-11T22:10:00Z,02/11/22 17:10,7379665,0.497,0.001,416,20.6,30.4,71,11.0
2022-02-11T22:11:00Z,02/11/22 17:11,7379675,0.398,0.001,416,20.6,30.4,71,11.0
2022-02-11T22:12:00Z,02/11/22 17:12,7379685,0.393,0.0,423,20.6,30.4,71,11.0
2022-02-11T22:13:00Z,02/11/22 17:13,7379695,0.46399999999999997,0.001,416,20.6,30.5,71,11.0
2022-02-11T22:14:00Z,02/11/22 17:14,7379705,0.357,0.0,419,20.5,30.5,71,12.0
2022-02-11T22:15:00Z,02/11/22 17:15,7379715,0.366,0.0,419,20.5,30.5,71,11.0
2022-02-11T22:16:00Z,02/11/22 17:16,7379725,0.462,0.0,417,20.5,30.5,71,11.0
2022-02-11T22:17:00Z,02/11/22 17:17,7379735,0.34500000000000003,0.0,408,20.5,30.5,71,11.0
2022-02-11T22:18:00Z,02/11/22 17:18,7379745,0.4,0.002,418,20.5,30.5,71,11.0
2022-02-11T22:19:00Z,02/11/22 17:19,7379755,0.381,0.0,424,20.5,30.5,71,12.0
2022-02-11T22:20:00Z,02/11/22 17:20,7379765,0.40800000000000003,0.0,411,20.5,30.6,71,11.0
2022-02-11T22:21:00Z,02/11/22 17:21,7379775,0.312,0.0,418,20.5,30.6,71,11.0
2022-02-11T22:22:00Z,02/11/22 17:22,7379785,0.363,0.0,428,20.5,30.5,71,10.0
2022-02-11T22:23:00Z,02/11/22 17:23,7379795,0.273,0.0,438,20.5,30.5,71,10.0
2022-02-11T22:24:00Z,02/11/22 17:24,7379805,0.368,0.001,457,20.5,30.5,71,10.0
2022-02-11T22:25:00Z,02/11/22 17:25,7379815,0.318,0.0,462,20.5,30.5,71,11.0
2022-02-11T22:26:00Z,02/11/22 17:26,7379825,0.369,0.0,472,20.5,30.6,71,9.0
2022-02-11T22:27:00Z,02/11/22 17:27,7379835,0.324,0.0,484,20.5,30.7,71,10.0
2022-02-11T22:28:00Z,02/11/22 17:28,7379845,0.29700000000000004,0.0,503,20.5,30.7,71,9.0
2022-02-11T22:29:00Z,02/11/22 17:29,7379855,0.387,0.0,524,20.5,30.8,71,9.0
2022-02-11T22:30:00Z,02/11/22 17:30,7379865,0.362,0.001,580,20.5,31.0,71,9.0
2022-02-11T22:31:00Z,02/11/22 17:31,7379875,0.373,0.002,641,20.5,31.2,71,9.0
2022-02-11T22:32:00Z,02/11/22 17:32,7379885,0.356,0.001,664,20.5,31.3,71,9.0
2022-02-11T22:33:00Z,02/11/22 17:33,7379895,0.363,0.0,673,20.5,31.4,71,9.0
2022-02-11T22:34:00Z,02/11/22 17:34,7379905,0.333,0.0,675,20.5,31.5,71,10.0
2022-02-11T22:35:00Z,02/11/22 17:35,7379915,0.327,0.0,662,20.4,31.5,71,10.0
2022-02-11T22:36:00Z,02/11/22 17:36,7379925,0.28500000000000003,0.0,650,20.4,31.6,71,10.0
2022-02-11T22:37:00Z,02/11/22 17:37,7379935,0.389,0.001,635,20.3,31.6,71,9.0
2022-02-11T22:38:00Z,02/11/22 17:38,7379945,0.40099999999999997,0.001,631,20.3,31.6,71,10.0
2022-02-11T22:39:00Z,02/11/22 17:39,7379955,0.40499999999999997,0.0,631,20.3,31.6,71,10.0
2022-02-11T22:40:00Z,02/11/22 17:40,7379965,0.40700000000000003,0.001,634,20.3,31.6,71,11.0
2022-02-11T22:41:00Z,02/11/22 17:41,7379975,0.45899999999999996,0.0,622,20.3,31.6,71,11.0
2022-02-11T22:42:00Z,02/11/22 17:42,7379985,0.49400000000000005,0.001,617,20.2,31.6,71,9.0
2022-02-11T22:43:00Z,02/11/22 17:43,7379995,0.441,0.0,626,20.2,31.7,71,9.0
2022-02-11T22:44:00Z,02/11/22 17:44,7380005,0.387,0.0,629,20.1,31.7,71,10.0
2022-02-11T22:45:00Z,02/11/22 17:45,7380015,0.454,0.002,613,20.1,31.7,71,10.0
2022-02-11T22:46:00Z,02/11/22 17:46,7380025,0.49800000000000005,0.0,615,20.1,31.7,71,10.0
2022-02-11T22:47:00Z,02/11/22 17:47,7380035,0.35,0.001,599,20.1,31.7,71,10.0
2022-02-11T22:48:00Z,02/11/22 17:48,7380045,0.315,0.0,598,20.1,31.7,71,11.0
2022-02-11T22:49:00Z,02/11/22 17:49,7380054,0.354,0.0,595,20.1,31.7,71,11.0
2022-02-11T22:50:00Z,02/11/22 17:50,7380064,0.306,0.0,599,20.0,31.7,71,11.0
2022-02-11T22:51:00Z,02/11/22 17:51,7380074,0.351,0.0,598,20.0,31.7,71,10.0
2022-02-11T22:52:00Z,02/11/22 17:52,7380084,0.34199999999999997,0.0,588,20.0,31.7,71,10.0
2022-02-11T22:53:00Z,02/11/22 17:53,7380094,0.376,0.002,586,20.0,31.7,71,10.0
2022-02-11T22:54:00Z,02/11/22 17:54,7380104,0.359,0.001,579,20.0,31.7,71,11.0
2022-02-11T22:55:00Z,02/11/22 17:55,7380114,0.279,0.0,575,20.0,31.7,71,11.0
2022-02-11T22:56:00Z,02/11/22 17:56,7380124,0.378,0.0,568,20.0,31.7,71,10.0
2022-02-11T22:57:00Z,02/11/22 17:57,7380134,0.296,0.001,571,20.0,31.7,71,10.0
2022-02-11T22:58:00Z,02/11/22 17:58,7380144,0.392,0.001,579,20.0,31.7,71,10.0